Regional Weather Roundup
Issued by NWS

Home | Current Version | Previous Version | Text Only | Print | Product List | Glossary On
Versions: 1 2 3 4 5 6 7 8 9 10 11 12 13 14 15 16 17 18 19 20 21 22 23 24 25 26 27 28 29 30 31 32 33 34 35 36 37 38 39 40 41 42 43 44 45 46 47 48 49 50
000
ASUS44 KLIX 241813
RWRLA
LOUISIANA WEATHER ROUNDUP
NATIONAL WEATHER SERVICE NEW ORLEANS LA
1200 PM CST FRI FEB 24 2017

NOTE: "FAIR" INDICATES FEW OR NO CLOUDS BELOW 12,000 FEET WITH NO
      SIGNIFICANT WEATHER AND/OR OBSTRUCTIONS TO VISIBILITY.
      SKY/WX - SKY CONDITION AND SIGNIFICANT WEATHER.
      TMP - AIR TEMPERATURE.    DP   - DEWPOINT TEMPERATURE.
      RH  - RELATIVE HUMIDITY.  PRES - PRESSURE.
      HX  - HEAT INDEX.         WCI  - WIND CHILL INDEX.

*  THESE STATIONS ARE NOT NWS OR FAA STATIONS AND ARE NOT UNDER
   NWS QUALITY CONTROL.

LAZ040-048-061>063-065-066-069-241900-
SOUTHEAST LOUISIANA

CITY           SKY/WX    TMP DP  RH WIND       PRES   REMARKS
N.O. AUDUBON   NOT AVBL
N.O. INTL ARPT PTSUNNY   74  61  63 SW15      29.83F
6HR MIN TEMP:  62; 6HR MAX TEMP:  76;

N.O. LAKEFRONT PTSUNNY   76  63  64 SW13      29.84F
6HR MIN TEMP:  62; 6HR MAX TEMP:  77;

N.O. DOWNTOWN*   N/A     76  62  62 S13G20    29.84F
6HR MIN TEMP:  66; 6HR MAX TEMP:  76;

RESERVE*       CLOUDY    78  62  58 S16       29.83F
6HR MIN TEMP:  64; 6HR MAX TEMP:  78;

SLIDELL        CLOUDY    76  62  62 S8        29.83F
6HR MIN TEMP:  54; 6HR MAX TEMP:  76;

BATON ROUGE    PTSUNNY   77  61  57 SW12      29.82F
6HR MIN TEMP:  61; 6HR MAX TEMP:  78;

BOOTHVILLE     CLOUDY    73  67  81 S13       29.87S
6HR MIN TEMP:  61; 6HR MAX TEMP:  74;

BELLE CHASSE   PTSUNNY   76  63  64 S18G24    29.84F
6HR MIN TEMP:  55; 6HR MAX TEMP:  77;

BOGALUSA*      FAIR      78  60  53 SW16      29.85F
6HR MIN TEMP:  66; 6HR MAX TEMP:  78;

GALLIANO*      CLOUDY    75  62  64 SW10      29.85F
6HR MIN TEMP:  66; 6HR MAX TEMP:  76;

NEW ROADS*     MOCLDY    75  61  60 S14G20    29.81F
6HR MIN TEMP:  62; 6HR MAX TEMP:  76;

GONZALES*      CLOUDY    75  60  59 SW8G20    29.83S
6HR MIN TEMP:  61; 6HR MAX TEMP:  77;

HAMMOND*       CLOUDY    73  59  60 S12       29.84S
HOUMA*         NOT AVBL
PORT FOURCHON* CLOUDY    73  63  68 S9        29.85F

$$

LAZ041-044-053-054-241900-
SOUTHWEST LOUISIANA

CITY           SKY/WX    TMP DP  RH WIND       PRES   REMARKS
LAKE CHARLES   MOSUNNY   75  61  61 S13G21    29.80S
6HR MIN TEMP:  66; 6HR MAX TEMP:  75;

LAFAYETTE      PTSUNNY   77  64  64 SW9       29.83S
6HR MIN TEMP:  64; 6HR MAX TEMP:  77;

PATTERSON      CLOUDY    74  63  68 SW10      29.84S
6HR MIN TEMP:  60; 6HR MAX TEMP:  76;

SALT POINT       N/A     74  65  73 VRB5      29.83R
6HR MIN TEMP:  63; 6HR MAX TEMP:  75;

NEW IBERIA     PTSUNNY   78  61  55 S16       29.83F
6HR MIN TEMP:  62; 6HR MAX TEMP:  78; 6HR PCP: TRACE;

CHENAULT AIRPK PTSUNNY   75  61  60 S13G20    29.81S

$$

LAZ027-028-241900-
CENTRAL LOUISIANA

CITY           SKY/WX    TMP DP  RH WIND       PRES   REMARKS
FORT POLK      MOSUNNY   76  60  59 SW13      29.77F
6HR MIN TEMP:  64; 6HR MAX TEMP:  76;

ALEXANDRIA INT MOSUNNY   76  61  59 SW13G22   29.76F
6HR MIN TEMP:  64; 6HR MAX TEMP:  76;

ALEXANDRIA     MOSUNNY   77  59  53 SW14G21   29.78F
6HR MIN TEMP:  64; 6HR MAX TEMP:  77;


$$

LAZ001-002-241900-
NORTHWEST LOUISIANA

CITY           SKY/WX    TMP DP  RH WIND       PRES   REMARKS
SHREVEPORT     MOSUNNY   78  60  53 W15       29.73F
6HR MIN TEMP:  60; 6HR MAX TEMP:  78;

BARKSDALE AFB  PTSUNNY   76  60  58 W9G16     29.74R
6HR MIN TEMP:  60; 6HR MAX TEMP:  76;

DTN SHREVEPORT PTSUNNY   76  60  57 W9        29.74R
6HR MIN TEMP:  61; 6HR MAX TEMP:  76;


$$

LAZ014-016-241900-
NORTHEAST LOUISIANA

CITY           SKY/WX    TMP DP  RH WIND       PRES   REMARKS
MONROE         MOSUNNY   75  58  55 S13G21    29.75F
6HR MIN TEMP:  61; 6HR MAX TEMP:  76;

TALLULAH       SUNNY     75  58  55 SW10G20   29.77F
6HR MIN TEMP:  60; 6HR MAX TEMP:  75;


$$




USA.gov is the U.S. government's official web portal to all federal, state and local government web resources and services.